Location: Be?i?
(36.9044°N, 30.1006°E)
Time: 11:55:12
(UTC+00:00)

ATLAS 5 CENTAUR R/B - Pass Details

Date: 05 August 2024
Orbit: 412 x 1157 km, 63.3° (Epoch: 08 September)

Event Time Altitude Azimuth Distance (km) Brightness Sun altitude
Rises 21:04:52 0° 327° (NNW) 3,072 6.1 -34.6°
Reaches altitude 10° 21:07:00 10° 327° (NNW) 2,259 5.2 -34.7°
Enters shadow 21:09:58 37° 327° (NNW) 1,241 3.4 -34.9°
